Showing default

HAWK-6C, 55326

Orbit data source: Space-Track

HAWK-6C, 55326 is a payload satellite owned by HawkEye 360 (US) in LEO that was launched on Tue, 24 Jan 2023 UTC via an ELECTRON launch vehicle from the Wallops Island (WLPIS). Payload-class satellites include a variety of spacecraft equipped with specific instruments for various scientific and technological missions. These include communications satellites like Starlink; space stations such as the ISS; scientific satellites like the Hubble; Earth observation satellites from companies like Planet Labs, Umbra, and HawkEye 360; GPS; miniature CubeSats for education and research; and military/defense satellites.

Loading next visibility...
Identifier
55326, 2023-011C
Orbit
LEO
Country
Flag of USUS
Related business
Manufacturer
UTIAS-SFL
Mission
Operational Commercial Sigint
Bus & Motor
HAWK2G, Unknown motor
Mass
31 kg wet, 30 kg dry
Launch date (UTC)
2023-01-24 (3 years ago)
Launch vehicle
ELECTRON
Launch site
Wallops Island (WLPIS)
Object type
Payload
Rocket body
Debris
Shape & HBR
Box + 2 Pan, 1.0 m
Radar Cross Section
0.240 m², Medium (>0.1 m² and < 1m²)

Expand to show TLE details & history
Last TLE update: 8 hours ago

TLE from 8 hours ago
0 HAWK-6C
1 55326U 23011C   26095.18015986  .00008298  00000-0  36091-3 0  9997
2 55326  40.4990  54.5274 0004523 239.3429 120.6935 15.22273602176721
Epoch: 2026-04-05T04:19Z
TLE epoch observation values (Epoch: 2026-04-05T04:19:25.811Z)
Latitude
Longitude
156.18057°
Altitude
500.072 km
Speed
7.616 km/s
True Right ascension
03h 38m 06s
True Declination
0° 00' 00"
Sunlit
Object was in daylight at epoch
Visualization orbit readout
Latitude
Unknown
Longitude
Unknown
Altitude
Unknown
Speed
Unknown
Apparent Right ascension
Unknown
Apparent Declination
Unknown
Sunlit
N/A
Visualization observer readout
Local Sidereal Time
17:58:07
Azimuth
Unknown
Elevation
Unknown
Doppler factor
Unknown
Orbital elements
Apogee altitude
504.453 km
Perigee altitude
498.23 km
Semi-major axis
6,879.479 km
Eccentricity
0.00045
Inclination
40.499°
RAAN
54.5274°
Arg. of periapsis
239.3429°
True anomaly
120.73806°
Mean anomaly
120.6935°
Eccentric anomaly
120.71578°
Mean motion
3.80373 °/min
Orbital period
94.64 mins
BSTAR
0.00036091
Loading maneuver chart data...
Computing Atmospheric mass density...
Loading historical data...
Loading historical data...
Loading historical data...
Loading historical data...
Loading historical data...
Loading historical data...
Loading historical data...

Documentation

Showing up to 5 results
|